Location: Newark
(52.2583°N, 7.1190°W)
Time: 01:31:50
(UTC+00:00)

S-56A Canister/Altair - Pass Details

Date: 22 November 2019
Orbit: 633 x 2499 km, 38.9° (Epoch: 11 December)

Event Time Altitude Azimuth Distance (km) Brightness Sun altitude
Rises 17:47:09 0° 242° (WSW) 5,324 13.7 -11.8°
Reaches altitude 10° 17:51:32 10° 234° (SW) 4,012 12.4 -12.4°
Maximum altitude 17:59:48 30° 178° (S) 2,150 9.9 -13.6°
Drops below altitude 10° 18:05:45 10° 119° (ESE) 2,829 10.0 -14.5°
Enters shadow 18:05:59 - 118° (ESE) 2,890 10.0 -14.5°
